Miscellaneous Local Product
Issued by NWS North Platte, NE

Home | Current Version | Previous Version | Graphics & Text | Print | Product List | Glossary On
Versions: 1 2 3 4 5 6 7 8 9 10 11 12 13 14 15 16 17 18 19 20 21 22 23 24 25 26 27 28 29 30 31 32 33 34 35 36 37 38 39 40 41 42 43 44 45 46 47 48 49 50
000
AXUS43 KLBF 262010
MISLBF


WESTERN AND NORTH CENTRAL NEBRASKA HOURLY WEATHER ROUNDUP
NATIONAL WEATHER SERVICE NORTH PLATTE NE
300 PM CDT MON JUN 26 2017

NOTE: "FAIR" INDICATES FEW OR NO CLOUDS BELOW 12,000 FEET WITH NO
SIGNIFICANT WEATHER AND/OR OBSTRUCTIONS TO VISIBILITY.

NOTE: STATIONS NOT REPORTING VARIABLES SUCH AS SKY/WEATHER OR
PRESSURE ARE PROVIDED BY RAWS AND APRS NETWORKS AND ARE NOT UNDER
NATIONAL WEATHER SERVICE QUALITY CONTROL.

...OBSERVATIONS IN AND NEAR THE EASTERN PANHANDLE OF NEBRASKA...

CITY           SKY/WX    TMP DP  RH WIND       PRES   REMARKS
PINE RIDGE     SUNNY     78  41  26 MISG      30.17F
GORDON         FAIR      75  39  26 SE8       30.19F
CHADRON        SUNNY     80  37  21 E7        30.15F
ALLIANCE       SUNNY     78  37  22 E9        30.18F
SIDNEY         SUNNY     84  49  29 N9        30.18F
$$

...OBSERVATIONS IN NORTHERN NEBRASKA AND FAR SOUTHERN SOUTH DAKOTA...

CITY           SKY/WX    TMP DP  RH WIND       PRES   REMARKS
WINNER         FAIR      77  38  24 NE3G22    30.19F
VALENTINE      SUNNY     79  35  20 E12G20    30.19F
THEDFORD       SUNNY     77  41  27 E10G22    30.20S
AINSWORTH      SUNNY     75  42  30 E9G22     30.20F
O`NEILL        SUNNY     73  43  34 NE10G20   30.19F
ORD            SUNNY     77  41  27 NE10G21   30.15F
BROKEN BOW     SUNNY     77  44  30 E10G20    30.16F
VALENTINE NWR    N/A     73  42  33 E10         N/A
HALSEY           N/A     77  38  24 NE8G20      N/A
BUTTE            N/A     70  42  35 NE8G18      N/A
CHAMBERS         N/A     76  46  33 CALM        N/A
EWING            N/A     73  51  46 NE6G15      N/A
$$

...OBSERVATIONS IN SOUTHWEST NEBRASKA AND FAR NORTHEAST COLORADO...

CITY           SKY/WX    TMP DP  RH WIND       PRES   REMARKS
WRAY           FAIR      82  54  36 E9        30.14F
IMPERIAL       CLOUDY    84  55  36 N10       30.13F
OGALLALA       SUNNY     82  48  30 NE14G20   30.16S
NORTH PLATTE   SUNNY     80  51  36 E14G25    30.15F
MCCOOK         CLOUDY    74  58  57 NE17G30   30.13S
LEXINGTON      MOSUNNY   74  61  64 NE7       30.15F
STAPLETON        N/A     75  44  33 E8          N/A
GOTHENBURG       N/A     71  57  61 E6          N/A
CALLAWAY         N/A     75  53  46 E9          N/A
$$

...OBSERVATIONS IN CENTRAL LINCOLN COUNTY AREA...

CITY           SKY/WX    TMP DP  RH WIND       PRES   REMARKS
N.P. AIRPORT   SUNNY     80  51  36 E14G25    30.15F
N.P. DOWNTOWN    N/A     78  49  36 NE8G16      N/A
N.P. SOUTHEAST   N/A     78  50  37 E5G12       N/A
N.P. HILLCREST   N/A     76  46  33 E14G22      N/A
$$

...SOME OBSERVATIONS FROM AROUND THE REGION...

CITY           SKY/WX    TMP DP  RH WIND       PRES   REMARKS
DENVER         MOSUNNY   86  42  21 NE12G17   30.18F
LIMON          CLOUDY    85  41  21 CALM      30.19F
ASPEN          SUNNY     81  23  11 NW15G22   30.32F
LARAMIE        SUNNY     79  26  14 NW8       30.29F
CASPER         SUNNY     84  33  16 VRB5      30.15F
CHEYENNE       SUNNY     80  39  23 MISG      30.24F
SCOTTSBLUFF    SUNNY     82  42  24 VRB3      30.16F
GRAND ISLAND   MOSUNNY   78  57  48 NE10G18   30.13F
OMAHA          PTSUNNY   76  54  46 NE14G22   30.13F
SIOUX FALLS    MOSUNNY   70  47  43 N9        30.19F
PIERRE         SUNNY     72  41  32 SE7       30.17F
RAPID CITY     SUNNY     76  38  25 SE13G22   30.16F
BISMARCK       SUNNY     74  43  32 S8        30.17F
KANSAS CITY    PTSUNNY   66  56  70 S12       30.15F
HILL CITY      MOSUNNY   81  62  52 E6        30.12F
WICHITA        MOSUNNY   86  60  41 SW9       30.08F
DODGE CITY     SUNNY     81  63  54 SE8       30.13F
OKLAHOMA CITY  MOSUNNY   84  56  38 SW6       30.11F
DALLAS         PTSUNNY   85  70  60 E7        30.07F
AMARILLO       SUNNY     84  54  35 S10       30.18F
$$




USA.gov is the U.S. government's official web portal to all federal, state and local government web resources and services.